Time,TemperatureF,DewpointF,PressureIn,WindDirection,WindDirectionDegrees,WindSpeedMPH,WindSpeedGustMPH,Humidity,HourlyPrecipIn,Conditions,Clouds,dailyrainin,SoftwareType,DateUTC
2013-04-05 00:03:00,40.0,28.0,29.95,SSW,200,0.0,0.0,62,0.03,,,-99.99,,2013-04-05 04:03:00,
2013-04-05 00:13:00,40.0,28.0,29.95,SSW,200,0.0,0.0,62,0.03,,,-99.99,,2013-04-05 04:13:00,
2013-04-05 00:23:00,40.0,28.0,29.96,SSW,200,0.0,0.0,61,0.03,,,-99.99,,2013-04-05 04:23:00,
2013-04-05 00:33:00,40.0,28.0,29.96,SSW,200,0.0,0.0,61,0.03,,,-99.99,,2013-04-05 04:33:00,
2013-04-05 00:42:00,40.0,28.0,29.96,SSW,200,0.0,0.0,61,0.03,,,-99.99,,2013-04-05 04:42:00,
2013-04-05 00:52:00,39.0,29.0,29.96,SSW,200,0.0,0.0,66,0.03,,,-99.99,,2013-04-05 04:52:00,
2013-04-05 01:02:00,38.0,29.0,29.96,SSW,200,0.0,0.0,71,0.03,,,-99.99,,2013-04-05 05:02:00,
2013-04-05 01:13:00,38.0,29.0,29.96,SSW,200,0.0,0.0,71,0.03,,,-99.99,,2013-04-05 05:13:00,
2013-04-05 01:22:00,38.0,29.0,29.96,SSW,200,0.0,0.0,71,0.03,,,-99.99,,2013-04-05 05:22:00,
2013-04-05 01:32:00,38.0,29.0,29.96,SSW,200,0.0,0.0,71,0.03,,,-99.99,,2013-04-05 05:32:00,
2013-04-05 01:42:00,38.0,29.0,29.96,SSW,200,0.0,0.0,71,0.03,,,-99.99,,2013-04-05 05:42:00,
2013-04-05 01:52:00,35.0,29.0,29.96,SSW,200,0.0,0.0,78,0.03,,,-99.99,,2013-04-05 05:52:00,
2013-04-05 02:03:00,35.0,29.0,29.96,SSW,200,0.0,0.0,78,0.03,,,-99.99,,2013-04-05 06:03:00,
2013-04-05 02:12:00,35.0,29.0,29.96,SSW,200,0.0,0.0,78,0.03,,,-99.99,,2013-04-05 06:12:00,
2013-04-05 02:22:00,35.0,30.0,29.96,SSW,200,0.0,0.0,81,0.03,,,-99.99,,2013-04-05 06:22:00,
2013-04-05 02:32:00,35.0,30.0,29.96,SSW,200,0.0,0.0,81,0.03,,,-99.99,,2013-04-05 06:32:00,
2013-04-05 02:42:00,35.0,30.0,29.96,SSW,200,0.0,0.0,81,0.03,,,-99.99,,2013-04-05 06:42:00,
2013-04-05 02:52:00,37.0,32.0,29.97,SSW,200,0.0,0.0,82,0.03,,,-99.99,,2013-04-05 06:52:00,
2013-04-05 03:03:00,37.0,30.0,29.98,SSW,200,0.0,0.0,76,0.03,,,-99.99,,2013-04-05 07:03:00,
2013-04-05 03:12:00,37.0,30.0,29.98,SSW,200,0.0,0.0,76,0.03,,,-99.99,,2013-04-05 07:12:00,
2013-04-05 03:22:00,36.0,31.0,30.00,SSW,200,0.0,0.0,83,0.03,,,-99.99,,2013-04-05 07:22:00,
2013-04-05 03:32:00,36.0,31.0,30.00,SSW,200,0.0,0.0,83,0.03,,,-99.99,,2013-04-05 07:32:00,
2013-04-05 03:42:00,36.0,31.0,30.00,SSW,200,0.0,0.0,83,0.03,,,-99.99,,2013-04-05 07:42:00,
2013-04-05 03:53:00,36.0,32.0,30.01,SSW,200,0.0,0.0,86,0.03,,,-99.99,,2013-04-05 07:53:00,
2013-04-05 04:03:00,35.0,32.0,30.01,SSW,200,0.0,0.0,88,0.03,,,-99.99,,2013-04-05 08:03:00,
2013-04-05 04:13:00,35.0,32.0,30.01,SSW,200,0.0,0.0,88,0.03,,,-99.99,,2013-04-05 08:13:00,
2013-04-05 04:23:00,35.0,32.0,30.02,SSW,200,0.0,0.0,89,0.03,,,-99.99,,2013-04-05 08:23:00,
2013-04-05 04:33:00,35.0,32.0,30.02,SSW,200,0.0,0.0,89,0.03,,,-99.99,,2013-04-05 08:33:00,
2013-04-05 04:43:00,35.0,32.0,30.02,SSW,200,0.0,0.0,89,0.03,,,-99.99,,2013-04-05 08:43:00,
2013-04-05 04:52:00,35.0,32.0,30.02,SSW,200,0.0,0.0,89,0.03,,,-99.99,,2013-04-05 08:52:00,
2013-04-05 05:02:00,35.0,30.0,30.03,SSW,200,0.0,0.0,82,0.03,,,-99.99,,2013-04-05 09:02:00,
2013-04-05 05:12:00,35.0,30.0,30.03,SSW,200,0.0,0.0,82,0.03,,,-99.99,,2013-04-05 09:12:00,
2013-04-05 05:22:00,34.0,28.0,30.04,SSW,200,0.0,0.0,80,0.03,,,-99.99,,2013-04-05 09:22:00,
2013-04-05 05:33:00,34.0,28.0,30.05,SSW,200,0.0,0.0,78,0.03,,,-99.99,,2013-04-05 09:33:00,
2013-04-05 05:43:00,34.0,28.0,30.05,SSW,200,0.0,0.0,78,0.03,,,-99.99,,2013-04-05 09:43:00,
2013-04-05 05:53:00,34.0,28.0,30.06,SSW,200,0.0,0.0,77,0.03,,,-99.99,,2013-04-05 09:53:00,
2013-04-05 06:03:00,34.0,27.0,30.06,SSW,200,0.0,0.0,76,0.03,,,-99.99,,2013-04-05 10:03:00,
2013-04-05 06:13:00,34.0,27.0,30.06,SSW,200,0.0,0.0,76,0.03,,,-99.99,,2013-04-05 10:13:00,
2013-04-05 06:23:00,33.0,27.0,30.08,SSW,200,0.0,0.0,77,0.03,,,-99.99,,2013-04-05 10:23:00,
2013-04-05 06:33:00,33.0,27.0,30.08,SSW,200,0.0,0.0,77,0.03,,,-99.99,,2013-04-05 10:33:00,
2013-04-05 06:43:00,33.0,27.0,30.08,SSW,200,0.0,0.0,77,0.03,,,-99.99,,2013-04-05 10:43:00,
2013-04-05 06:53:00,33.0,26.0,30.09,SSW,200,0.0,0.0,76,0.03,,,-99.99,,2013-04-05 10:53:00,
2013-04-05 07:03:00,33.0,26.0,30.09,SSW,200,0.0,0.0,76,0.03,,,-99.99,,2013-04-05 11:03:00,
2013-04-05 07:13:00,33.0,26.0,30.09,SSW,200,0.0,0.0,76,0.03,,,-99.99,,2013-04-05 11:13:00,
2013-04-05 07:22:00,32.0,25.0,30.10,SSW,200,0.0,0.0,76,0.03,,,-99.99,,2013-04-05 11:22:00,
2013-04-05 07:33:00,32.0,26.0,30.11,SSW,200,0.0,0.0,77,0.03,,,-99.99,,2013-04-05 11:33:00,
2013-04-05 07:42:00,32.0,26.0,30.11,SSW,200,0.0,0.0,77,0.03,,,-99.99,,2013-04-05 11:42:00,
2013-04-05 07:52:00,31.0,25.0,30.12,SSW,200,1.0,0.0,79,0.03,,,-99.99,,2013-04-05 11:52:00,
2013-04-05 08:02:00,31.0,25.0,30.13,SSW,200,0.0,0.0,79,0.03,,,-99.99,,2013-04-05 12:02:00,
2013-04-05 08:12:00,31.0,25.0,30.13,SSW,200,0.0,0.0,79,0.03,,,-99.99,,2013-04-05 12:12:00,
2013-04-05 08:22:00,31.0,26.0,30.14,SSW,200,0.0,0.0,80,0.03,,,-99.99,,2013-04-05 12:22:00,
2013-04-05 08:32:00,31.0,26.0,30.14,SSW,200,0.0,0.0,80,0.03,,,-99.99,,2013-04-05 12:32:00,
2013-04-05 08:42:00,31.0,26.0,30.14,SSW,200,0.0,0.0,80,0.03,,,-99.99,,2013-04-05 12:42:00,
2013-04-05 08:52:00,33.0,26.0,30.15,SSW,200,0.0,0.0,76,0.03,,,-99.99,,2013-04-05 12:52:00,
2013-04-05 09:02:00,33.0,26.0,30.16,SSW,200,0.0,0.0,74,0.03,,,-99.99,,2013-04-05 13:02:00,
2013-04-05 09:12:00,33.0,26.0,30.16,SSW,200,0.0,0.0,74,0.03,,,-99.99,,2013-04-05 13:12:00,
2013-04-05 09:23:00,33.0,26.0,30.16,SSW,200,0.0,0.0,74,0.03,,,-99.99,,2013-04-05 13:23:00,
2013-04-05 09:32:00,33.0,26.0,30.16,SSW,200,0.0,0.0,74,0.03,,,-99.99,,2013-04-05 13:32:00,
2013-04-05 09:42:00,33.0,26.0,30.16,SSW,200,0.0,0.0,74,0.03,,,-99.99,,2013-04-05 13:42:00,
2013-04-05 09:53:00,34.0,25.0,30.17,SSW,200,0.0,0.0,70,0.03,,,-99.99,,2013-04-05 13:53:00,
2013-04-05 10:03:00,34.0,24.0,30.17,SSW,200,0.0,0.0,67,0.03,,,-99.99,,2013-04-05 14:03:00,
2013-04-05 10:12:00,34.0,24.0,30.17,SSW,200,0.0,0.0,67,0.03,,,-99.99,,2013-04-05 14:12:00,
2013-04-05 10:23:00,35.0,25.0,30.17,SSW,200,0.0,0.0,66,0.03,,,-99.99,,2013-04-05 14:23:00,
2013-04-05 10:37:00,35.0,24.0,30.18,SSW,200,0.0,0.0,65,0.03,,,-99.99,,2013-04-05 14:37:00,
2013-04-05 10:43:00,35.0,24.0,30.18,SSW,200,0.0,0.0,65,0.03,,,-99.99,,2013-04-05 14:43:00,
2013-04-05 11:02:00,37.0,24.0,30.18,SSW,200,0.0,0.0,58,0.03,,,-99.99,,2013-04-05 15:02:00,
2013-04-05 11:13:00,37.0,24.0,30.18,SSW,200,0.0,0.0,58,0.03,,,-99.99,,2013-04-05 15:13:00,
2013-04-05 11:23:00,36.0,23.0,30.18,SSW,200,0.0,0.0,59,0.03,,,-99.99,,2013-04-05 15:23:00,
2013-04-05 11:33:00,37.0,23.0,30.19,SSW,200,0.0,0.0,57,0.03,,,-99.99,,2013-04-05 15:33:00,
2013-04-05 11:43:00,37.0,23.0,30.19,SSW,200,0.0,0.0,57,0.03,,,-99.99,,2013-04-05 15:43:00,
2013-04-05 11:53:00,38.0,23.0,30.19,North,4,6.0,0.0,55,0.03,,,-99.99,,2013-04-05 15:53:00,
2013-04-05 12:03:00,38.0,23.0,30.19,NW,326,10.0,0.0,55,0.03,,,-99.99,,2013-04-05 16:03:00,
2013-04-05 12:14:00,38.0,23.0,30.19,NW,326,10.0,0.0,55,0.03,,,-99.99,,2013-04-05 16:14:00,
2013-04-05 12:23:00,39.0,23.0,30.18,North,4,11.0,0.0,53,0.03,,,-99.99,,2013-04-05 16:23:00,
2013-04-05 12:33:00,39.0,23.0,30.19,NNW,332,12.0,0.0,52,0.03,,,-99.99,,2013-04-05 16:33:00,
2013-04-05 12:43:00,39.0,23.0,30.19,NNW,332,12.0,0.0,52,0.03,,,-99.99,,2013-04-05 16:43:00,
2013-04-05 12:53:00,39.0,22.0,30.19,NNW,340,10.0,0.0,51,0.03,,,-99.99,,2013-04-05 16:53:00,
2013-04-05 13:03:00,40.0,23.0,30.18,North,356,14.0,0.0,51,0.03,,,-99.99,,2013-04-05 17:03:00,
2013-04-05 13:13:00,40.0,23.0,30.18,North,356,14.0,0.0,51,0.03,,,-99.99,,2013-04-05 17:13:00,
2013-04-05 13:23:00,41.0,23.0,30.18,NNE,14,12.0,0.0,49,0.03,,,-99.99,,2013-04-05 17:23:00,
2013-04-05 13:33:00,41.0,23.0,30.18,North,352,11.0,0.0,48,0.03,,,-99.99,,2013-04-05 17:33:00,
2013-04-05 13:45:00,41.0,23.0,30.18,North,352,11.0,0.0,48,0.03,,,-99.99,,2013-04-05 17:45:00,
2013-04-05 13:53:00,41.0,22.0,30.17,NNW,345,11.0,0.0,47,0.03,,,-99.99,,2013-04-05 17:53:00,
2013-04-05 14:02:00,42.0,23.0,30.17,NNE,14,13.0,0.0,46,0.03,,,-99.99,,2013-04-05 18:02:00,
2013-04-05 14:13:00,42.0,23.0,30.17,NNE,14,13.0,0.0,46,0.03,,,-99.99,,2013-04-05 18:13:00,
2013-04-05 14:23:00,42.0,23.0,30.17,NNE,14,13.0,0.0,46,0.03,,,-99.99,,2013-04-05 18:23:00,
2013-04-05 14:33:00,43.0,23.0,30.16,NNW,346,8.0,0.0,44,0.03,,,-99.99,,2013-04-05 18:33:00,
2013-04-05 14:43:00,43.0,23.0,30.16,NNW,346,8.0,0.0,44,0.03,,,-99.99,,2013-04-05 18:43:00,
2013-04-05 14:53:00,43.0,23.0,30.16,NNW,346,8.0,0.0,44,0.03,,,-99.99,,2013-04-05 18:53:00,
2013-04-05 15:02:00,44.0,23.0,30.14,North,356,13.0,0.0,43,0.03,,,-99.99,,2013-04-05 19:02:00,
2013-04-05 15:13:00,44.0,23.0,30.14,North,356,13.0,0.0,43,0.03,,,-99.99,,2013-04-05 19:13:00,
2013-04-05 15:23:00,44.0,23.0,30.14,North,356,13.0,0.0,43,0.03,,,-99.99,,2013-04-05 19:23:00,
2013-04-05 15:33:00,44.0,23.0,30.14,North,356,13.0,0.0,43,0.03,,,-99.99,,2013-04-05 19:33:00,
2013-04-05 15:42:00,44.0,23.0,30.14,North,356,13.0,0.0,43,0.03,,,-99.99,,2013-04-05 19:42:00,
2013-04-05 16:53:00,46.0,22.0,30.11,NW,322,10.0,0.0,38,0.03,,,-99.99,,2013-04-05 20:53:00,
2013-04-05 17:03:00,46.0,22.0,30.12,North,359,6.0,0.0,38,0.03,,,-99.99,,2013-04-05 21:03:00,
2013-04-05 17:13:00,46.0,22.0,30.12,North,359,6.0,0.0,38,0.03,,,-99.99,,2013-04-05 21:13:00,
2013-04-05 17:24:00,47.0,21.0,30.11,NNW,328,9.0,0.0,36,0.03,,,-99.99,,2013-04-05 21:24:00,
2013-04-05 17:33:00,47.0,22.0,30.11,NNW,329,10.0,0.0,37,0.03,,,-99.99,,2013-04-05 21:33:00,
2013-04-05 17:43:00,47.0,22.0,30.11,NNW,329,10.0,0.0,37,0.03,,,-99.99,,2013-04-05 21:43:00,
2013-04-05 17:53:00,47.0,22.0,30.11,NNW,329,10.0,0.0,37,0.03,,,-99.99,,2013-04-05 21:53:00,
2013-04-05 18:03:00,47.0,22.0,30.11,NNW,329,10.0,0.0,37,0.03,,,-99.99,,2013-04-05 22:03:00,
2013-04-05 19:03:00,45.0,19.0,30.14,North,356,10.0,0.0,35,0.03,,,-99.99,,2013-04-05 23:03:00,
2013-04-05 19:13:00,45.0,19.0,30.14,North,356,10.0,0.0,35,0.03,,,-99.99,,2013-04-05 23:13:00,
2013-04-05 19:23:00,45.0,19.0,30.14,North,356,10.0,0.0,35,0.03,,,-99.99,,2013-04-05 23:23:00,
2013-04-05 19:33:00,45.0,19.0,30.14,North,356,10.0,0.0,35,0.03,,,-99.99,,2013-04-05 23:33:00,
2013-04-05 19:42:00,45.0,19.0,30.14,North,356,10.0,0.0,35,0.03,,,-99.99,,2013-04-05 23:42:00,
2013-04-05 19:53:00,44.0,21.0,30.14,NNW,338,14.0,0.0,40,0.03,,,-99.99,,2013-04-05 23:53:00,
2013-04-05 20:03:00,43.0,23.0,30.14,NW,315,10.0,0.0,44,0.03,,,-99.99,,2013-04-06 00:03:00,
2013-04-05 20:13:00,43.0,23.0,30.14,NW,315,10.0,0.0,44,0.03,,,-99.99,,2013-04-06 00:13:00,
2013-04-05 20:23:00,42.0,22.0,30.15,NW,315,9.0,0.0,45,0.03,,,-99.99,,2013-04-06 00:23:00,
2013-04-05 20:33:00,42.0,23.0,30.15,NNW,328,8.0,0.0,46,0.03,,,-99.99,,2013-04-06 00:33:00,
2013-04-05 20:42:00,42.0,23.0,30.15,NNW,328,8.0,0.0,46,0.03,,,-99.99,,2013-04-06 00:42:00,
2013-04-05 20:52:00,41.0,22.0,30.15,NNW,339,12.0,0.0,47,0.03,,,-99.99,,2013-04-06 00:52:00,
2013-04-05 21:02:00,40.0,23.0,30.16,North,352,9.0,0.0,50,0.03,,,-99.99,,2013-04-06 01:02:00,
2013-04-05 21:13:00,40.0,23.0,30.16,North,352,9.0,0.0,50,0.03,,,-99.99,,2013-04-06 01:13:00,
2013-04-05 21:23:00,39.0,23.0,30.16,NNW,329,11.0,0.0,53,0.03,,,-99.99,,2013-04-06 01:23:00,
2013-04-05 21:33:00,39.0,24.0,30.17,NNW,345,9.0,0.0,55,0.03,,,-99.99,,2013-04-06 01:33:00,
2013-04-05 21:43:00,39.0,24.0,30.17,NNW,345,9.0,0.0,55,0.03,,,-99.99,,2013-04-06 01:43:00,
2013-04-05 21:53:00,38.0,24.0,30.18,NNW,345,8.0,0.0,57,0.03,,,-99.99,,2013-04-06 01:53:00,
2013-04-05 22:02:00,38.0,25.0,30.18,NNW,336,5.0,0.0,58,0.03,,,-99.99,,2013-04-06 02:02:00,
2013-04-05 22:12:00,38.0,25.0,30.18,NNW,336,5.0,0.0,58,0.03,,,-99.99,,2013-04-06 02:12:00,
2013-04-05 22:23:00,38.0,25.0,30.19,NNW,345,0.0,0.0,60,0.03,,,-99.99,,2013-04-06 02:23:00,
2013-04-05 22:33:00,38.0,24.0,30.19,NNW,345,0.0,0.0,56,0.03,,,-99.99,,2013-04-06 02:33:00,
2013-04-05 22:42:00,38.0,24.0,30.19,NNW,345,0.0,0.0,56,0.03,,,-99.99,,2013-04-06 02:42:00,
2013-04-05 22:53:00,38.0,21.0,30.19,NNW,345,0.0,0.0,50,0.03,,,-99.99,,2013-04-06 02:53:00,
2013-04-05 23:03:00,37.0,20.0,30.19,NNW,345,0.0,0.0,50,0.03,,,-99.99,,2013-04-06 03:03:00,
2013-04-05 23:13:00,37.0,20.0,30.19,NNW,345,0.0,0.0,50,0.03,,,-99.99,,2013-04-06 03:13:00,
2013-04-05 23:23:00,37.0,22.0,30.18,NNW,345,0.0,0.0,54,0.03,,,-99.99,,2013-04-06 03:23:00,
2013-04-05 23:34:00,37.0,22.0,30.18,NNW,345,0.0,0.0,54,0.03,,,-99.99,,2013-04-06 03:34:00,
2013-04-05 23:43:00,37.0,22.0,30.18,NNW,345,0.0,0.0,54,0.03,,,-99.99,,2013-04-06 03:43:00,
2013-04-05 23:55:00,37.0,21.0,30.18,NNW,345,0.0,0.0,53,0.03,,,-99.99,,2013-04-06 03:55:00,